CAPE
59 580 1860 1476 1290 1240 1391 1359 1247 1023 626 281 74 28 1 0 0 0 0 0 0 1 4 4 55 74 73 64 51 1 0 0 0 0 0 0 0 2 1 0 0 0 0
179 737 1734 1517 1234 1066 1282 1396 1503 1244 799 154 56 30 0 0 0 0 0 1 4 31 49 24 51 78 76 68 39 0 0 0 0 0 0 0 0 0 0 0 0 0 6
545 623 863 1501 1245 1232 1673 1210 1140 932 607 349 85 42 4 0 0 0 0 2 6 44 59 105 81 62 23 0 0 0 0 0 0 0 0 0 0 0 0 0 0 25 0
609 523 579 1388 1333 1273 1169 1105 1014 892 595 247 139 13 8 0 0 0 1 3 13 33 15 2 1 0 0 0 0 0 0 0 0 0 0 0 0 5 0 0 0 0 3
548 468 579 1349 1239 773 613 659 752 716 633 307 169 59 13 0 0 0 2 4 8 4 0 0 0 0 0 0 2 1 0 0 0 0 0 0 0 12 20 65 18 0 0
408 375 889 1190 1005 656 390 174 199 310 367 277 273 85 0 0 0 0 0 2 1 1 0 0 0 0 0 0 0 1 0 0 0 0 0 0 4 57 67 39 72 127 155
356 424 826 1118 739 453 299 164 141 159 296 357 432 97 34 5 0 0 0 0 0 0 0 0 0 1 4 7 4 0 0 0 0 0 0 0 0 19 0 42 129 126 154
542 659 736 933 847 669 328 300 392 345 488 643 556 157 92 68 46 4 0 0 1 7 9 11 22 39 44 8 0 0 0 0 0 0 0 0 18 4 1 64 49 12 13
636 661 669 684 635 626 412 647 594 518 633 825 572 428 278 247 192 75 24 0 12 31 75 48 80 97 14 0 0 0 0 0 0 0 0 0 1 3 92 61 31 8 8
706 701 583 547 512 402 242 516 632 553 412 473 463 331 240 225 252 345 205 102 27 75 125 113 179 50 0 0 0 0 0 0 0 0 0 0 3 77 63 51 31 11 0
633 767 619 516 467 344 205 175 406 437 331 290 228 262 201 98 135 234 143 172 163 190 277 282 169 0 0 0 0 0 0 0 0 0 0 81 84 44 23 34 25 4 0
528 825 759 753 491 260 299 143 152 215 177 171 197 140 33 65 106 179 132 189 267 332 263 171 33 0 0 0 0 0 0 0 0 0 0 91 48 22 18 27 13 5 2
686 613 850 883 673 276 241 81 48 114 103 91 135 54 7 59 65 73 46 89 71 114 1 0 0 0 0 0 0 0 0 0 0 0 9 50 24 9 0 11 2 1 0
960 848 798 813 641 400 182 82 56 52 52 63 58 27 0 15 38 25 24 7 0 0 0 0 0 0 0 0 0 0 0 0 0 0 0 18 11 3 0 0 0 0 0
959 878 976 873 729 525 179 111 59 41 34 84 23 8 0 0 8 0 0 0 0 0 0 0 0 0 0 0 0 0 0 0 0 0 0 0 0 0 0 0 0 0 0
1034 1053 934 929 842 592 367 130 88 49 18 2 2 0 0 0 0 0 0 0 0 0 0 0 0 0 0 0 0 0 0 0 0 0 0 0 0 0 0 0 0 0 0
155 1072 1099 961 840 699 508 201 97 69 19 0 0 0 0 0 0 0 0 0 0 0 0 0 0 0 0 0 0 0 0 0 0 0 0 0 0 0 0 0 0 0 0
0 0 791 1257 1023 708 546 472 203 100 55 0 0 0 0 0 0 0 0 0 0 0 0 0 0 0 0 0 0 0 0 0 0 0 0 0 0 0 0 0 0 0 0
0 0 0 441 1238 1073 797 706 398 114 45 16 0 0 0 0 0 0 0 0 0 0 0 0 0 0 0 0 0 0 0 0 0 0 0 0 0 0 0 0 0 0 0
0 0 0 0 750 1080 1052 826 412 97 44 16 12 8 0 0 0 0 0 0 0 0 0 0 0 0 0 0 0 0 0 0 0 0 0 0 0 0 0 0 0 0 0
0 0 0 0 0 820 1053 793 532 353 186 48 36 55 20 0 0 0 0 0 0 0 0 0 0 0 0 0 0 0 0 0 0 0 0 0 0 0 0 0 0 0 0
0 0 0 0 0 16 774 886 747 657 410 253 60 47 17 0 0 0 0 0 0 0 0 0 0 0 0 0 0 0 0 0 0 0 0 0 0 0 0 0 0 0 0
0 0 0 0 0 0 69 457 0 0 0 1 0 0 0 0 0 0 0 0 0 0 0 0 0 0 0 0 0 0 0 0 0 0 0 0 0 0 0 0 0 0 0
0 0 0 0 0 0 0 76 210 413 345 24 132 51 0 0 0 0 0 0 0 0 0 0 0 0 0 0 0 0 0 0 0 0 0 0 0 0 0 0 0 0 0
0 0 0 0 0 0 0 108 136 175 181 0 5 4 0 0 0 0 0 0 0 0 0 0 0 0 0 0 0 0 0 0 0 0 0 0 0 0 0 0 0 0 0
0 0 0 0 0 0 0 0 195 227 138 0 0 0 0 0 0 0 0 0 0 0 0 0 0 0 0 0 0 0 0 0 0 0 0 0 0 0 0 0 0 0 0
CIN
-461 -258 -88 -91 -91 -77 -47 -29 -24 -24 -40 -56 -94 -88 -0 -0 -0 -0 -0 -0 -0 -0 -0 -0 -0 -0 -0 -0 -0 -0 -0 -0 -0 -0 -0 -0 -0 -0 -0 -0 -0 -0 -0
-431 -234 -102 -98 -98 -95 -63 -33 -19 -20 -32 -94 -115 -114 -0 -0 -0 -0 -0 -0 -0 -2 -2 -9 -0 -2 -0 -0 -0 -0 -0 -0 -0 -0 -0 -0 -0 -0 -0 -0 -0 -0 -2
-305 -255 -189 -105 -103 -81 -43 -51 -46 -49 -59 -68 -109 -151 -0 -0 -0 -0 -0 -0 -0 -1 -0 -80 -0 -0 -0 -0 -0 -0 -0 -0 -0 -0 -0 -0 -0 -0 -0 -0 -0 -6 -0
-286 -270 -230 -111 -97 -81 -79 -64 -55 -53 -69 -97 -107 -12 -0 -0 -0 -0 -0 -0 -0 -6 -3 -1 -5 -0 -0 -0 -0 -0 -0 -0 -0 -0 -0 -0 -0 -0 -0 -0 -0 -0 -1
-288 -283 -230 -111 -100 -121 -124 -100 -74 -68 -71 -107 -123 -168 -183 -0 -0 -0 -0 -0 -0 -0 -0 -0 -0 -0 -0 -0 -0 -0 -0 -0 -0 -0 -0 -0 -0 -5 -0 -91 -119 -0 -0
-302 -301 -167 -110 -114 -140 -172 -221 -186 -133 -116 -122 -112 -164 -0 -0 -0 -0 -0 -0 -0 -0 -0 -0 -0 -0 -0 -0 -0 -0 -0 -0 -0 -0 -0 -0 -34 -42 -144 -176 -111 -73 -54
-301 -268 -169 -106 -139 -173 -205 -251 -251 -226 -157 -126 -101 -185 -227 -60 -0 -0 -0 -0 -0 -0 -0 -0 -0 -0 -0 -0 -0 -0 -0 -0 -0 -0 -0 -0 -1 -0 -0 -117 -66 -72 -39
-239 -196 -172 -119 -112 -125 -201 -210 -170 -173 -127 -92 -94 -170 -190 -203 -220 -144 -0 -0 -0 -94 -58 -72 -121 -88 -77 -0 -0 -0 -0 -0 -0 -0 -0 -0 -5 -0 -0 -141 -163 -0 -0
-183 -185 -173 -153 -143 -127 -172 -115 -126 -131 -108 -75 -99 -107 -126 -122 -134 -186 -245 -0 -233 -164 -103 -98 -85 -71 -66 -0 -0 -0 -0 -0 -0 -0 -0 -0 -0 -0 -105 -119 -0 -0 -0
-143 -145 -173 -172 -184 -207 -247 -144 -117 -133 -153 -135 -124 -140 -154 -152 -132 -95 -125 -159 -208 -147 -98 -90 -65 -103 -0 -0 -0 -0 -0 -0 -0 -0 -0 -0 -0 -147 -67 -0 -0 -0 -0
-136 -124 -156 -183 -197 -236 -284 -291 -176 -161 -184 -192 -214 -174 -190 -261 -210 -140 -170 -134 -125 -101 -71 -60 -84 -0 -0 -0 -0 -0 -0 -0 -0 -0 -0 -77 -148 -0 -0 -0 -0 -0 -0
-168 -110 -115 -120 -179 -260 -243 -352 -342 -260 -295 -287 -248 -284 -383 -325 -265 -180 -189 -135 -98 -70 -79 -88 -55 -0 -0 -0 -0 -0 -0 -0 -0 -0 -0 -74 -0 -0 -0 -5 -0 -0 -0
-139 -143 -102 -96 -130 -251 -274 -416 -475 -383 -386 -398 -337 -434 -514 -365 -329 -294 -290 -213 -209 -158 -26 -0 -0 -0 -0 -0 -0 -0 -0 -0 -0 -0 -3 -2 -0 -0 -0 -1 -0 -0 -0
-111 -119 -114 -98 -134 -197 -296 -407 -463 -468 -462 -450 -464 -483 -0 -464 -393 -388 -358 -332 -0 -0 -0 -0 -0 -0 -0 -0 -0 -0 -0 -0 -0 -0 -0 -4 -0 -0 -0 -0 -0 -0 -0
-82 -97 -95 -94 -112 -143 -277 -359 -425 -462 -479 -392 -516 -536 -0 -0 -447 -0 -0 -0 -0 -0 -0 -0 -0 -0 -0 -0 -0 -0 -0 -0 -0 -0 -0 -0 -0 -0 -0 -0 -0 -0 -0
-92 -91 -85 -96 -103 -127 -190 -296 -350 -408 -490 -401 -583 -13 -0 -0 -0 -0 -0 -0 -0 -0 -0 -0 -0 -0 -0 -0 -0 -0 -0 -0 -0 -0 -0 -0 -0 -0 -0 -0 -0 -0 -0
-119 -108 -77 -76 -80 -106 -155 -236 -290 -344 -422 -0 -0 -0 -0 -0 -0 -0 -0 -0 -0 -0 -0 -0 -0 -0 -0 -0 -0 -0 -0 -0 -0 -0 -0 -0 -0 -0 -0 -0 -0 -0 -0
-0 -0 -130 -68 -63 -102 -140 -158 -230 -287 -339 -0 -0 -0 -0 -0 -0 -0 -0 -0 -0 -0 -0 -0 -0 -0 -0 -0 -0 -0 -0 -0 -0 -0 -0 -0 -0 -0 -0 -0 -0 -0 -0
-0 -0 -0 -167 -69 -81 -107 -113 -175 -247 -311 -377 -0 -0 -0 -0 -0 -0 -0 -0 -0 -0 -0 -0 -0 -0 -0 -0 -0 -0 -0 -0 -0 -0 -0 -0 -0 -0 -0 -0 -0 -0 -0
-0 -0 -0 -0 -119 -102 -96 -85 -138 -222 -279 -327 -349 -256 -0 -0 -0 -0 -0 -0 -0 -0 -0 -0 -0 -0 -0 -0 -0 -0 -0 -0 -0 -0 -0 -0 -0 -0 -0 -0 -0 -0 -0
-0 -0 -0 -0 -0 -118 -66 -85 -103 -144 -226 -273 -328 -294 -276 -0 -0 -0 -0 -0 -0 -0 -0 -0 -0 -0 -0 -0 -0 -0 -0 -0 -0 -0 -0 -0 -0 -0 -0 -0 -0 -0 -0
-0 -0 -0 -0 -0 -259 -94 -105 -105 -129 -151 -223 -292 -301 -280 -0 -0 -0 -0 -0 -0 -0 -0 -0 -0 -0 -0 -0 -0 -0 -0 -0 -0 -0 -0 -0 -0 -0 -0 -0 -0 -0 -0
-0 -0 -0 -0 -0 -0 -208 -141 -0 -0 -0 -0 -0 -0 -0 -0 -0 -0 -0 -0 -0 -0 -0 -0 -0 -0 -0 -0 -0 -0 -0 -0 -0 -0 -0 -0 -0 -0 -0 -0 -0 -0 -0
-0 -0 -0 -0 -0 -0 -0 -148 -127 -120 -131 -228 -260 -315 -0 -0 -0 -0 -0 -0 -0 -0 -0 -0 -0 -0 -0 -0 -0 -0 -0 -0 -0 -0 -0 -0 -0 -0 -0 -0 -0 -0 -0
-0 -0 -0 -0 -0 -0 -0 -150 -148 -121 -140 -0 -248 -275 -0 -0 -0 -0 -0 -0 -0 -0 -0 -0 -0 -0 -0 -0 -0 -0 -0 -0 -0 -0 -0 -0 -0 -0 -0 -0 -0 -0 -0
-0 -0 -0 -0 -0 -0 -0 -0 -154 -158 -185 -0 -0 -0 -0 -0 -0 -0 -0 -0 -0 -0 -0 -0 -0 -0 -0 -0 -0 -0 -0 -0 -0 -0 -0 -0 -0 -0 -0 -0 -0 -0 -0
Wind_Speed
3 6 16 15 14 14 13 14 15 15 14 14 13 13 12 11 10 9 8 8 8 6 9 8 10 12 12 12 12 11 11 11 11 11 11 12 11 10 9 8 8 4 5
10 7 18 16 14 13 14 13 13 14 14 13 12 12 11 10 9 8 8 8 7 7 6 10 9 11 13 13 10 10 11 11 10 9 9 9 8 8 8 7 7 6 5
12 8 11 16 15 13 13 13 12 14 14 14 13 11 10 9 9 10 10 10 8 8 13 14 12 14 13 11 10 11 11 10 8 7 7 3 3 7 6 5 4 4 4
11 7 7 14 14 13 13 13 13 14 15 14 13 11 11 10 10 10 10 11 9 11 11 11 12 11 11 10 10 11 10 9 7 7 3 3 2 7 6 4 4 4 3
9 8 9 15 15 14 12 11 12 12 14 14 13 13 12 11 11 11 11 10 9 10 9 9 9 9 10 10 10 9 9 8 6 4 2 2 2 3 7 6 2 3 2
7 7 11 15 15 14 13 13 13 12 12 13 14 14 12 12 12 11 11 11 9 8 8 8 9 9 8 8 9 8 7 7 5 3 2 1 2 6 10 10 9 10 9
8 6 9 15 15 14 13 13 13 13 13 15 16 14 13 12 11 11 10 9 9 8 8 8 8 8 8 8 8 7 7 8 5 5 3 2 3 8 9 10 13 15 16
10 8 8 13 14 13 12 12 11 12 13 15 15 13 12 12 11 11 10 8 7 7 7 7 8 7 7 8 7 7 7 8 6 5 4 3 4 8 8 11 13 14 14
8 8 6 7 9 12 11 11 11 11 10 12 12 12 11 10 10 9 9 8 7 6 6 7 6 7 7 8 8 7 8 9 5 3 3 2 4 7 10 11 14 14 14
7 7 7 6 6 6 6 10 9 11 9 8 9 9 9 8 9 9 7 7 6 5 5 5 6 7 8 9 10 12 10 9 5 4 2 2 5 10 13 12 13 13 13
10 9 7 7 7 6 6 6 8 10 10 8 6 6 5 2 2 4 7 6 5 5 5 6 7 7 9 9 9 9 8 3 3 2 1 5 11 12 12 12 13 12 12
12 11 10 8 7 6 5 6 5 5 5 5 4 5 3 3 3 4 6 7 5 4 5 4 7 8 6 4 3 6 3 3 3 2 1 8 11 11 13 13 10 12 11
12 10 13 11 9 7 6 4 3 3 3 4 6 5 4 3 2 3 3 2 2 4 3 5 5 3 4 3 3 3 3 3 2 2 2 10 10 10 11 10 10 10 9
13 12 11 12 10 9 4 5 5 5 4 4 5 6 4 3 3 4 3 4 3 3 4 3 3 4 4 5 4 4 4 3 2 2 4 10 10 11 10 9 9 9 8
13 13 12 11 10 9 8 5 5 6 5 7 6 6 5 4 4 4 4 3 3 3 3 3 4 4 4 4 4 4 4 4 4 3 3 10 10 10 9 9 8 8 7
11 15 11 13 11 10 11 8 7 6 6 5 5 5 6 5 4 4 4 4 4 4 4 4 4 4 3 3 4 3 4 3 3 4 3 4 9 9 8 7 7 7 7
9 12 14 13 11 12 13 9 7 7 7 7 6 8 9 7 6 6 5 5 4 4 6 4 4 4 4 3 4 3 3 3 3 4 3 3 4 7 7 7 8 7 6
6 9 13 13 14 13 14 11 8 8 7 7 7 7 11 11 10 7 5 5 4 4 5 4 4 3 3 2 2 2 3 3 3 3 3 3 3 3 5 6 7 7 7
9 8 9 11 15 17 14 11 11 9 8 7 6 7 11 12 11 9 7 6 7 5 4 5 2 3 3 2 3 2 2 3 3 3 3 3 2 3 2 5 7 7 6
8 8 8 8 12 14 12 10 7 6 8 7 9 9 10 9 11 10 6 7 8 6 5 4 4 2 3 4 3 3 2 1 2 3 3 2 2 3 3 4 3 4 6
7 8 9 9 13 10 9 10 10 11 10 9 9 11 11 11 11 11 7 8 8 9 11 9 4 4 2 3 4 2 2 2 2 1 2 2 3 3 3 3 2 2 3
11 9 8 10 11 9 9 9 7 10 9 11 10 11 11 11 11 11 11 10 11 8 8 9 6 4 3 5 4 3 1 2 2 2 1 2 4 3 3 3 3 3 3
8 10 9 9 10 10 11 6 3 4 3 2 4 8 9 12 14 13 13 11 12 10 11 12 10 9 5 3 4 5 3 5 2 1 0 1 4 3 3 2 3 3 4
10 8 8 8 9 9 8 8 11 10 10 8 10 11 10 13 13 12 13 12 12 9 10 11 9 7 6 6 2 2 2 3 5 1 2 1 2 4 3 2 2 3 4
8 7 8 7 7 8 9 11 10 11 9 4 4 8 9 9 13 14 14 12 13 9 8 10 10 8 4 6 5 4 2 2 2 4 3 3 2 3 3 3 3 4 3
6 7 7 6 8 7 7 10 13 13 10 5 4 7 7 7 8 12 14 14 12 11 10 9 8 9 6 5 4 4 5 5 4 4 3 2 3 2 1 2 4 4 3
Wind_Direction
222 171 148 152 148 144 152 147 143 137 132 132 131 122 119 116 112 108 111 108 102 104 131 150 148 138 122 111 98 91 85 84 82 75 69 62 70 76 75 69 66 54 70
142 169 152 155 153 159 154 151 143 139 139 141 136 124 120 116 110 107 112 108 103 91 89 146 138 131 115 99 94 90 91 89 83 77 68 50 46 72 74 72 62 78 73
147 148 152 151 158 165 157 149 151 149 145 143 143 132 130 125 121 121 124 124 119 82 70 85 100 99 95 93 91 96 94 85 79 83 89 69 30 71 78 80 41 38 110
145 140 145 150 152 151 147 150 147 150 151 149 148 145 142 133 127 124 128 128 124 94 79 79 82 92 93 91 95 99 91 79 70 77 104 105 357 80 81 74 34 38 43
142 143 152 151 149 152 154 155 157 160 156 154 154 152 147 138 131 126 125 125 118 117 114 110 105 101 98 93 98 95 80 76 64 73 124 65 344 27 60 50 36 8 360
125 132 155 149 148 155 161 164 167 171 170 164 164 155 150 142 134 128 125 123 122 117 108 101 98 97 94 91 93 86 72 57 61 66 95 278 305 61 55 39 37 38 51
128 133 148 149 154 160 165 167 172 176 178 181 165 160 157 148 139 134 131 129 126 123 118 114 108 103 95 88 82 77 72 62 78 92 77 43 318 59 55 56 65 61 56
147 143 151 156 159 163 165 166 167 176 185 190 164 168 164 160 149 145 143 139 133 126 125 113 108 100 87 79 79 83 85 79 69 80 61 23 38 62 59 78 69 61 49
148 142 145 155 160 161 164 168 173 175 172 160 166 172 171 165 160 156 153 151 146 139 128 122 117 94 79 75 75 70 91 101 84 73 70 23 6 77 80 83 80 71 60
149 155 152 154 153 156 160 170 183 166 167 176 177 175 167 168 170 168 161 165 158 150 133 136 112 101 93 80 86 97 92 87 81 69 43 324 92 89 82 80 74 69 65
177 174 167 163 166 159 159 181 182 171 167 175 173 156 150 144 204 192 152 175 154 164 165 122 109 104 84 77 80 90 85 70 77 56 20 93 101 89 82 77 77 75 71
189 189 188 179 175 166 173 169 167 171 165 165 166 168 149 172 209 170 158 167 156 189 109 122 114 92 79 71 59 65 71 65 54 32 342 108 104 93 82 77 76 75 73
190 194 196 189 185 177 176 168 169 166 163 168 175 173 166 151 144 132 134 138 128 103 71 72 76 69 90 92 71 79 84 72 52 22 79 106 105 100 86 86 82 81 79
195 200 197 198 192 190 177 178 180 174 175 182 183 169 159 162 158 150 154 157 151 133 124 113 108 105 87 86 94 95 92 90 65 42 46 90 102 103 104 101 93 87 79
215 211 204 201 198 195 192 183 178 189 187 197 184 179 164 170 174 158 161 157 155 142 144 137 125 114 105 98 89 110 106 98 86 66 49 88 100 109 107 101 94 83 74
212 219 209 212 201 197 200 191 189 190 191 188 179 181 174 169 170 179 164 169 169 161 153 149 152 133 118 113 102 107 121 111 99 91 69 70 100 110 109 103 93 78 76
213 207 208 212 206 205 204 192 192 197 194 197 187 176 181 174 182 183 178 173 173 157 140 131 121 109 112 91 104 104 122 124 116 101 84 73 71 94 110 100 101 80 69
213 204 209 204 202 207 210 196 196 197 198 202 191 184 188 184 183 182 179 185 162 148 145 144 137 105 107 128 133 110 119 147 136 133 112 99 86 58 70 98 92 76 57
224 212 220 209 200 210 209 204 201 199 199 203 184 193 190 190 186 179 183 179 156 151 156 154 139 134 143 132 138 96 101 147 165 140 142 123 113 96 73 91 82 60 45
222 227 216 213 215 207 204 203 200 189 200 198 200 200 187 193 183 178 175 165 157 154 153 156 142 101 133 151 111 88 29 75 151 161 169 144 125 97 81 71 46 13 19
241 217 220 210 216 204 201 200 205 212 202 202 201 206 194 193 184 182 175 169 173 172 182 164 129 140 120 164 114 50 42 53 118 135 160 179 156 136 126 121 94 39 357
237 230 219 217 222 209 200 206 203 208 217 208 202 201 193 188 186 185 179 180 184 171 160 168 160 136 135 184 136 107 153 335 2 15 148 194 172 145 128 100 86 68 37
240 233 218 213 220 221 207 193 117 88 81 139 192 204 196 185 184 191 186 184 183 189 180 182 179 162 153 194 218 143 122 216 145 342 352 207 169 148 137 126 73 65 59
264 248 232 214 201 217 204 191 204 209 206 204 203 210 192 182 187 190 182 183 183 190 193 187 180 173 140 157 138 149 46 146 162 191 275 228 167 168 165 160 108 98 88
308 305 297 264 222 205 194 196 202 214 220 189 201 200 202 199 185 183 184 183 184 185 201 184 179 166 171 148 146 152 133 47 63 129 188 232 281 208 203 177 162 147 103
358 1 351 318 287 250 203 203 205 212 212 181 195 191 191 196 196 192 188 188 186 184 186 180 178 178 176 157 151 162 159 161 186 149 134 187 194 244 225 203 175 167 138